STARLINK-35041, 66188

Orbit data source: Space-Track

STARLINK-35041, 66188 is a payload satellite owned by SpaceX/Seattle (US) in LEO that was launched on Sun, 26 Oct 2025 UTC via an FALCON 9 launch vehicle from the Air Force Eastern Test Range (AFETR). Payload-class satellites include a variety of spacecraft equipped with specific instruments for various scientific and technological missions. These include communications satellites like Starlink; space stations such as the ISS; scientific satellites like the Hubble; Earth observation satellites from companies like Planet Labs, Umbra, and HawkEye 360; GPS; miniature CubeSats for education and research; and military/defense satellites.

Loading next visibility...
Identifier
66188, 2025-243M
Orbit
LEO
Country
Flag of USUS
Related business
Manufacturer
SpaceX/Seattle
Mission
Operational Commercial Communications
Bus & Motor
STARLINK V2MO, Unknown motor
Mass
575 kg wet, ~530 kg dry
Launch date (UTC)
2025-10-26 (8 months ago)
Launch vehicle
FALCON 9
Launch site
Air Force Eastern Test Range (AFETR)
Object type
Payload
Rocket body
Debris
Shape & HBR
Box + 2 Pan, 17.7 m
Radar Cross Section
36.964 m², Large (>1 m²)

Expand to show TLE details & history
Last TLE update: 1 day ago

TLE from 1 day ago
0 STARLINK-35041
1 66188U 25243M   26170.58746076  .00209727  00000-0  68058-2 0  9990
2 66188  53.1580 132.0311 0002706 144.2173 215.9010 15.30624377 36253
Epoch: 2026-06-19T14:05Z
TLE epoch observation values (Epoch: 2026-06-19T14:05:56.609Z)
Latitude
-0°
Longitude
12.73093°
Altitude
476.35 km
Speed
7.628 km/s
True Right ascension
08h 48m 07s
True Declination
0° 00' 00"
Sunlit
Object was in daylight at epoch
Visualization orbit readout
Latitude
Unknown
Longitude
Unknown
Altitude
Unknown
Speed
Unknown
Apparent Right ascension
Unknown
Apparent Declination
Unknown
Sunlit
N/A
Visualization observer readout
Local Sidereal Time
07:17:44
Azimuth
Unknown
Elevation
Unknown
Doppler factor
Unknown
Orbital elements
Apogee altitude
476.059 km
Perigee altitude
472.351 km
Semi-major axis
6,852.342 km
Eccentricity
0.00027
Inclination
53.158°
RAAN
132.0311°
Arg. of periapsis
144.2173°
True anomaly
215.88282°
Mean anomaly
215.901°
Eccentric anomaly
215.89191°
Mean motion
3.82635 °/min
Orbital period
94.08 mins
BSTAR
0.0068058
Loading maneuver chart data...
Computing Atmospheric mass density...
Loading historical data...
Loading historical data...
Loading historical data...
Loading historical data...
Loading historical data...
Loading historical data...
Loading historical data...

Documentation

Showing up to 5 results
|